OAL929 FNLU-FOOL

Flight info

Callsign OAL929
Flight time 1h 30m
Altitude 36000
Route EXITO UR526 PILVI
Aircraft B738/M-V/N

Departure

Time 2026-04-27 14:54
Airport Quatro de Fevereiro International Airport (FNLU)

Arrival

Time 2026-04-27 16:24
Airport Libreville Leon M'ba International Airport (FOOL)
Time Latitude Longitude Altitude Speed Heading
2026-04-27 14:46 -8.85381 13.22633 248 ft 0 kts 248°
2026-04-27 14:52 -8.85382 13.22631 248 ft 2 kts 248°
2026-04-27 14:52 -8.85396 13.22601 248 ft 10 kts 235°
2026-04-27 14:52 -8.85480 13.22567 249 ft 15 kts 172°
2026-04-27 14:52 -8.85506 13.22578 249 ft 0 kts 148°
2026-04-27 14:53 -8.85510 13.22580 249 ft 7 kts 145°
2026-04-27 14:53 -8.85474 13.22743 248 ft 62 kts 66°
2026-04-27 14:53 -8.85193 13.23422 241 ft 145 kts 68°
2026-04-27 14:54 -8.84733 13.24556 526 ft 187 kts 67°
2026-04-27 14:54 -8.84179 13.25817 1358 ft 200 kts 55°
2026-04-27 14:54 -8.83094 13.26566 2482 ft 201 kts 14°
2026-04-27 14:54 -8.81623 13.26426 2819 ft 230 kts 335°
2026-04-27 14:55 -8.80141 13.25607 3059 ft 258 kts 333°
2026-04-27 14:55 -8.78459 13.24773 3499 ft 276 kts 335°
2026-04-27 14:55 -8.76711 13.23950 4352 ft 277 kts 336°
2026-04-27 14:55 -8.74953 13.23144 5189 ft 279 kts 338°
2026-04-27 14:56 -8.73171 13.22342 5983 ft 282 kts 339°
2026-04-27 14:56 -8.71366 13.21539 6740 ft 285 kts 339°
2026-04-27 14:56 -8.69538 13.20734 7480 ft 288 kts 339°
2026-04-27 14:56 -8.67689 13.19925 8235 ft 291 kts 339°
2026-04-27 14:57 -8.65820 13.19110 8980 ft 294 kts 339°
2026-04-27 14:57 -8.63928 13.18289 9745 ft 297 kts 339°
2026-04-27 14:57 -8.62014 13.17460 10346 ft 305 kts 339°
2026-04-27 14:57 -8.59980 13.16582 10449 ft 330 kts 339°
2026-04-27 14:58 -8.57803 13.15644 10633 ft 350 kts 339°
2026-04-27 14:58 -8.55492 13.14648 10779 ft 369 kts 339°
2026-04-27 14:58 -8.53107 13.13619 11249 ft 375 kts 339°
2026-04-27 14:58 -8.50698 13.12578 11863 ft 377 kts 338°
2026-04-27 14:59 -8.48282 13.11534 12527 ft 378 kts 338°
2026-04-27 14:59 -8.45857 13.10487 13118 ft 380 kts 338°
2026-04-27 14:59 -8.43413 13.09433 13661 ft 384 kts 338°
2026-04-27 14:59 -8.40953 13.08372 14167 ft 386 kts 338°
2026-04-27 15:00 -8.38476 13.07305 14651 ft 388 kts 338°
2026-04-27 15:00 -8.35980 13.06231 15106 ft 392 kts 338°
2026-04-27 15:00 -8.33459 13.05146 15570 ft 395 kts 338°
2026-04-27 15:00 -8.30927 13.04057 16019 ft 398 kts 338°
2026-04-27 15:01 -8.28372 13.02957 16470 ft 400 kts 338°
2026-04-27 15:01 -8.25802 13.01850 16914 ft 403 kts 338°
2026-04-27 15:01 -8.23227 13.00742 17338 ft 406 kts 338°
2026-04-27 15:01 -8.20616 12.99618 17759 ft 409 kts 338°
2026-04-27 15:02 -8.17980 12.98484 18184 ft 412 kts 338°
2026-04-27 15:02 -8.15341 12.97348 18542 ft 415 kts 338°
2026-04-27 15:02 -8.12687 12.96206 18902 ft 417 kts 338°
2026-04-27 15:02 -8.10883 12.95430 19171 ft 418 kts 338°
2026-04-27 15:03 -8.08187 12.94271 19518 ft 421 kts 338°
2026-04-27 15:03 -8.05524 12.93126 19854 ft 423 kts 338°
2026-04-27 15:03 -8.02798 12.91954 20196 ft 425 kts 338°
2026-04-27 15:03 -8.00063 12.90778 20550 ft 427 kts 338°
2026-04-27 15:04 -7.97323 12.89601 20882 ft 430 kts 338°
2026-04-27 15:04 -7.94572 12.88418 21206 ft 432 kts 338°
2026-04-27 15:04 -7.91800 12.87227 21524 ft 435 kts 338°
2026-04-27 15:04 -7.88977 12.86014 21842 ft 437 kts 338°
2026-04-27 15:05 -7.86181 12.84814 22142 ft 439 kts 338°
2026-04-27 15:05 -7.83365 12.83604 22453 ft 441 kts 338°
2026-04-27 15:05 -7.80539 12.82390 22749 ft 443 kts 338°
2026-04-27 15:05 -7.77703 12.81172 23036 ft 446 kts 338°
2026-04-27 15:06 -7.74847 12.79947 23313 ft 448 kts 338°
2026-04-27 15:06 -7.71966 12.78709 23560 ft 450 kts 338°
2026-04-27 15:06 -7.69085 12.77473 23791 ft 452 kts 338°
2026-04-27 15:06 -7.66191 12.76231 24047 ft 453 kts 338°
2026-04-27 15:07 -7.63268 12.74977 24278 ft 454 kts 338°
2026-04-27 15:07 -7.60357 12.73728 24500 ft 456 kts 338°
2026-04-27 15:07 -7.57436 12.72476 24710 ft 458 kts 338°
2026-04-27 15:07 -7.54492 12.71213 24934 ft 460 kts 338°
2026-04-27 15:08 -7.51547 12.69950 25151 ft 461 kts 338°
2026-04-27 15:08 -7.48599 12.68686 25361 ft 463 kts 338°
2026-04-27 15:08 -7.45637 12.67416 25562 ft 465 kts 338°
2026-04-27 15:08 -7.42662 12.66141 25769 ft 466 kts 338°
2026-04-27 15:09 -7.39632 12.64842 25980 ft 467 kts 338°
2026-04-27 15:09 -7.36672 12.63574 26174 ft 469 kts 338°
2026-04-27 15:09 -7.33623 12.62268 26366 ft 471 kts 338°
2026-04-27 15:09 -7.30648 12.60993 26571 ft 472 kts 338°
2026-04-27 15:10 -7.27575 12.59677 26750 ft 473 kts 338°
2026-04-27 15:10 -7.24550 12.58381 26936 ft 475 kts 338°
2026-04-27 15:10 -7.21503 12.57077 27120 ft 476 kts 338°
2026-04-27 15:10 -7.18452 12.55770 27298 ft 477 kts 338°
2026-04-27 15:11 -7.15390 12.54459 27472 ft 479 kts 338°
2026-04-27 15:11 -7.12321 12.53146 27643 ft 480 kts 338°
2026-04-27 15:11 -7.09243 12.51828 27810 ft 481 kts 338°
2026-04-27 15:11 -7.06156 12.50507 27978 ft 483 kts 338°
2026-04-27 15:12 -7.03067 12.49185 28135 ft 484 kts 338°
2026-04-27 15:12 -6.99960 12.47856 28292 ft 485 kts 338°
2026-04-27 15:12 -6.96852 12.46535 28474 ft 485 kts 339°
2026-04-27 15:12 -6.93734 12.45233 28713 ft 485 kts 339°
2026-04-27 15:13 -6.90654 12.43960 28982 ft 483 kts 339°
2026-04-27 15:13 -6.87509 12.42664 29234 ft 483 kts 339°
2026-04-27 15:13 -6.84397 12.41381 29445 ft 483 kts 339°
2026-04-27 15:13 -6.81287 12.40096 29665 ft 483 kts 339°
2026-04-27 15:14 -6.78182 12.38812 29913 ft 483 kts 339°
2026-04-27 15:14 -6.75081 12.37528 30156 ft 481 kts 339°
2026-04-27 15:14 -6.72023 12.36260 30376 ft 481 kts 339°
2026-04-27 15:14 -6.68888 12.34961 30559 ft 481 kts 339°
2026-04-27 15:15 -6.65791 12.33677 30758 ft 481 kts 339°
2026-04-27 15:15 -6.62699 12.32395 30987 ft 481 kts 339°
2026-04-27 15:15 -6.59611 12.31116 31239 ft 479 kts 339°
2026-04-27 15:15 -6.56532 12.29840 31478 ft 479 kts 339°
2026-04-27 15:16 -6.53454 12.28565 31681 ft 479 kts 339°
2026-04-27 15:16 -6.50369 12.27287 31873 ft 480 kts 339°
2026-04-27 15:16 -6.47281 12.26009 32101 ft 479 kts 339°
2026-04-27 15:16 -6.44203 12.24734 32363 ft 478 kts 339°
2026-04-27 15:17 -6.41128 12.23462 32620 ft 477 kts 339°
2026-04-27 15:17 -6.38061 12.22192 32844 ft 477 kts 339°
2026-04-27 15:17 -6.34990 12.20921 33054 ft 477 kts 339°
2026-04-27 15:17 -6.31920 12.19651 33286 ft 477 kts 339°
2026-04-27 15:18 -6.28854 12.18382 33563 ft 476 kts 339°
2026-04-27 15:18 -6.25800 12.17119 33838 ft 474 kts 339°
2026-04-27 15:18 -6.22748 12.15856 34053 ft 474 kts 339°
2026-04-27 15:18 -6.19696 12.14594 34241 ft 474 kts 339°
2026-04-27 15:19 -6.16650 12.13335 34462 ft 473 kts 339°
2026-04-27 15:19 -6.13608 12.12077 34693 ft 472 kts 339°
2026-04-27 15:19 -6.10577 12.10823 34924 ft 471 kts 339°
2026-04-27 15:19 -6.07544 12.09569 35118 ft 471 kts 339°
2026-04-27 15:20 -6.04515 12.08317 35297 ft 471 kts 339°
2026-04-27 15:20 -6.01489 12.07067 35504 ft 470 kts 339°
2026-04-27 15:20 -5.98466 12.05818 35716 ft 469 kts 339°
2026-04-27 15:20 -5.95447 12.04570 35891 ft 469 kts 339°
2026-04-27 15:21 -5.89377 12.02063 35881 ft 471 kts 339°
2026-04-27 15:21 -5.83329 11.99565 35868 ft 468 kts 339°
2026-04-27 15:22 -5.77320 11.97083 35855 ft 466 kts 339°
2026-04-27 15:22 -5.71335 11.94612 35852 ft 465 kts 339°
2026-04-27 15:23 -5.65358 11.92145 35850 ft 464 kts 339°
2026-04-27 15:23 -5.59380 11.89679 35867 ft 465 kts 339°
2026-04-27 15:24 -5.53389 11.87208 35853 ft 467 kts 339°
2026-04-27 15:24 -5.47374 11.84726 35873 ft 468 kts 339°
2026-04-27 15:25 -5.41324 11.82231 35859 ft 471 kts 339°
2026-04-27 15:25 -5.35251 11.79728 35870 ft 472 kts 339°
2026-04-27 15:26 -5.29162 11.77217 35863 ft 474 kts 339°
2026-04-27 15:26 -5.23052 11.74699 35863 ft 475 kts 339°
2026-04-27 15:27 -5.16939 11.72179 35869 ft 476 kts 339°
2026-04-27 15:27 -5.10808 11.69653 35855 ft 476 kts 339°
2026-04-27 15:28 -5.04657 11.67115 35861 ft 475 kts 339°
2026-04-27 15:28 -4.98541 11.64588 35851 ft 475 kts 339°
2026-04-27 15:29 -4.92450 11.62073 35849 ft 474 kts 339°
2026-04-27 15:29 -4.86374 11.59565 35857 ft 473 kts 339°
2026-04-27 15:30 -4.80260 11.57041 35854 ft 472 kts 339°
2026-04-27 15:30 -4.74205 11.54543 35862 ft 471 kts 339°
2026-04-27 15:31 -4.68175 11.52055 35857 ft 471 kts 339°
2026-04-27 15:31 -4.62118 11.49557 35860 ft 470 kts 339°
2026-04-27 15:32 -4.56059 11.47058 35863 ft 470 kts 339°
2026-04-27 15:32 -4.50010 11.44564 35857 ft 469 kts 339°
2026-04-27 15:33 -4.43957 11.42068 35864 ft 469 kts 339°
2026-04-27 15:33 -4.37931 11.39584 35854 ft 469 kts 339°
2026-04-27 15:34 -4.31882 11.37092 35860 ft 470 kts 339°
2026-04-27 15:34 -4.25838 11.34601 35860 ft 470 kts 339°
2026-04-27 15:35 -4.19786 11.32107 35856 ft 470 kts 339°
2026-04-27 15:35 -4.13745 11.29619 35860 ft 470 kts 339°
2026-04-27 15:36 -4.07702 11.27130 35857 ft 471 kts 339°
2026-04-27 15:36 -4.01631 11.24629 35858 ft 470 kts 339°
2026-04-27 15:37 -3.95588 11.22141 35855 ft 470 kts 339°
2026-04-27 15:37 -3.89532 11.19649 35854 ft 470 kts 339°
2026-04-27 15:38 -3.83464 11.17153 35859 ft 469 kts 339°
2026-04-27 15:38 -3.77439 11.14674 35851 ft 469 kts 339°
2026-04-27 15:39 -3.71399 11.12188 35861 ft 467 kts 339°
2026-04-27 15:39 -3.66407 11.10134 35855 ft 466 kts 339°
2026-04-27 15:40 -3.59417 11.07259 35856 ft 465 kts 339°
2026-04-27 15:40 -3.53451 11.04805 35860 ft 464 kts 339°
2026-04-27 15:41 -3.48433 11.02742 35851 ft 464 kts 339°
2026-04-27 15:41 -3.42479 11.00293 35863 ft 463 kts 339°
2026-04-27 15:42 -3.36534 10.97849 35856 ft 463 kts 339°
2026-04-27 15:42 -3.30562 10.95394 35858 ft 463 kts 339°
2026-04-27 15:43 -3.24598 10.92943 35858 ft 463 kts 339°
2026-04-27 15:43 -3.18624 10.90487 35857 ft 464 kts 339°
2026-04-27 15:44 -3.12652 10.88032 35861 ft 465 kts 339°
2026-04-27 15:44 -3.06662 10.85572 35862 ft 465 kts 339°
2026-04-27 15:45 -3.00645 10.83101 35851 ft 466 kts 339°
2026-04-27 15:45 -2.94681 10.80651 35856 ft 467 kts 339°
2026-04-27 15:46 -2.88636 10.78167 35846 ft 467 kts 339°
2026-04-27 15:46 -2.82624 10.75697 35852 ft 467 kts 339°
2026-04-27 15:47 -2.76645 10.73241 35851 ft 467 kts 339°
2026-04-27 15:47 -2.70653 10.70781 35844 ft 466 kts 339°
2026-04-27 15:48 -2.64623 10.68304 35853 ft 465 kts 340°
2026-04-27 15:49 -2.55663 10.64625 35843 ft 465 kts 340°
2026-04-27 15:49 -2.49682 10.62169 35850 ft 464 kts 340°
2026-04-27 15:50 -2.43721 10.59722 35845 ft 463 kts 340°
2026-04-27 15:50 -2.37734 10.57265 35852 ft 463 kts 340°
2026-04-27 15:51 -2.31813 10.54834 35843 ft 463 kts 340°
2026-04-27 15:51 -2.25813 10.52372 35854 ft 463 kts 340°
2026-04-27 15:52 -2.19889 10.49941 35845 ft 463 kts 340°
2026-04-27 15:52 -2.13920 10.47491 35846 ft 463 kts 340°
2026-04-27 15:53 -2.07951 10.45041 35849 ft 463 kts 340°
2026-04-27 15:53 -2.01998 10.42602 35840 ft 464 kts 340°
2026-04-27 15:54 -1.96014 10.40155 35850 ft 465 kts 340°
2026-04-27 15:54 -1.89991 10.37690 35843 ft 466 kts 340°
2026-04-27 15:55 -1.83995 10.35255 35842 ft 466 kts 342°
2026-04-27 15:55 -1.77729 10.33745 35928 ft 461 kts 351°
2026-04-27 15:55 -1.74564 10.33145 35814 ft 465 kts 351°
2026-04-27 15:56 -1.71402 10.32538 35888 ft 463 kts 351°
2026-04-27 15:56 -1.65074 10.31254 35869 ft 465 kts 350°
2026-04-27 15:57 -1.58734 10.29909 35862 ft 465 kts 349°
2026-04-27 15:57 -1.52393 10.28550 35849 ft 466 kts 349°
2026-04-27 15:58 -1.46045 10.27192 35839 ft 467 kts 349°
2026-04-27 15:58 -1.39698 10.25837 35828 ft 467 kts 349°
2026-04-27 15:59 -1.33323 10.24477 35846 ft 466 kts 349°
2026-04-27 15:59 -1.27013 10.23130 35854 ft 465 kts 349°
2026-04-27 16:00 -1.20675 10.21777 35832 ft 466 kts 349°
2026-04-27 16:00 -1.14417 10.19969 35814 ft 467 kts 338°
2026-04-27 16:00 -1.11509 10.18651 35984 ft 464 kts 336°
2026-04-27 16:01 -1.08562 10.17278 35817 ft 468 kts 336°
2026-04-27 16:01 -1.02664 10.14561 35822 ft 468 kts 337°
2026-04-27 16:02 -0.96698 10.11896 35839 ft 467 kts 338°
2026-04-27 16:02 -0.90749 10.09279 35846 ft 467 kts 338°
2026-04-27 16:03 -0.84797 10.06668 35656 ft 470 kts 338°
2026-04-27 16:03 -0.81809 10.05357 34901 ft 476 kts 338°
2026-04-27 16:03 -0.78806 10.04038 34448 ft 471 kts 338°
2026-04-27 16:03 -0.75743 10.02691 33523 ft 477 kts 337°
2026-04-27 16:04 -0.72737 10.01370 32960 ft 472 kts 337°
2026-04-27 16:04 -0.69707 10.00037 32041 ft 477 kts 337°
2026-04-27 16:04 -0.66704 9.98716 31423 ft 473 kts 337°
2026-04-27 16:04 -0.63641 9.97370 30655 ft 475 kts 337°
2026-04-27 16:05 -0.60634 9.96048 29935 ft 475 kts 337°
2026-04-27 16:05 -0.57632 9.94728 29509 ft 467 kts 337°
2026-04-27 16:05 -0.54657 9.93420 28691 ft 467 kts 337°
2026-04-27 16:05 -0.51727 9.92131 28344 ft 457 kts 337°
2026-04-27 16:06 -0.48817 9.90852 27672 ft 456 kts 337°
2026-04-27 16:06 -0.45951 9.89592 27107 ft 451 kts 337°
2026-04-27 16:06 -0.43091 9.88335 26737 ft 444 kts 337°
2026-04-27 16:06 -0.40266 9.87094 25961 ft 447 kts 338°
2026-04-27 16:07 -0.37422 9.85844 25554 ft 439 kts 338°
2026-04-27 16:07 -0.34621 9.84613 25013 ft 437 kts 338°
2026-04-27 16:07 -0.31837 9.83389 24383 ft 437 kts 338°
2026-04-27 16:07 -0.29073 9.82174 23951 ft 433 kts 338°
2026-04-27 16:08 -0.26306 9.80958 23334 ft 433 kts 338°
2026-04-27 16:08 -0.23567 9.79754 22762 ft 429 kts 338°
2026-04-27 16:08 -0.20874 9.78570 22197 ft 427 kts 338°
2026-04-27 16:08 -0.18129 9.77363 21668 ft 423 kts 338°
2026-04-27 16:09 -0.15453 9.76187 21142 ft 419 kts 338°
2026-04-27 16:09 -0.10154 9.73889 20129 ft 413 kts 339°
2026-04-27 16:09 -0.07499 9.72854 19643 ft 409 kts 341°
2026-04-27 16:10 -0.02198 9.70873 18604 ft 405 kts 341°
2026-04-27 16:10 0.03040 9.68900 17503 ft 401 kts 340°
2026-04-27 16:11 0.05645 9.67908 16993 ft 397 kts 340°
2026-04-27 16:11 0.10755 9.65952 15982 ft 391 kts 340°
2026-04-27 16:12 0.15829 9.64005 14990 ft 386 kts 340°
2026-04-27 16:12 0.18295 9.63059 14505 ft 384 kts 340°
2026-04-27 16:12 0.23292 9.61143 13486 ft 381 kts 340°
2026-04-27 16:13 0.25753 9.60199 12952 ft 379 kts 340°
2026-04-27 16:13 0.30648 9.58321 12074 ft 371 kts 340°
2026-04-27 16:13 0.33008 9.57415 11960 ft 358 kts 340°
2026-04-27 16:14 0.37508 9.55428 11188 ft 353 kts 334°
2026-04-27 16:14 0.41702 9.53190 10606 ft 325 kts 334°
2026-04-27 16:15 0.45512 9.51213 10394 ft 293 kts 335°
2026-04-27 16:15 0.49047 9.49410 9816 ft 283 kts 335°
2026-04-27 16:16 0.52552 9.47631 8987 ft 281 kts 335°
2026-04-27 16:16 0.56009 9.45875 8217 ft 277 kts 335°
2026-04-27 16:17 0.59436 9.44132 7457 ft 275 kts 335°
2026-04-27 16:17 0.62821 9.42412 6768 ft 271 kts 335°
2026-04-27 16:18 0.65468 9.41060 6660 ft 242 kts 333°
2026-04-27 16:18 0.67108 9.38495 6409 ft 215 kts 273°
2026-04-27 16:19 0.66924 9.37077 6242 ft 203 kts 251°
2026-04-27 16:19 0.66365 9.35790 5905 ft 200 kts 244°
2026-04-27 16:20 0.63627 9.33170 4728 ft 191 kts 165°
2026-04-27 16:20 0.62399 9.33593 4432 ft 185 kts 159°
2026-04-27 16:20 0.59969 9.34435 3757 ft 175 kts 156°
2026-04-27 16:21 0.58929 9.34882 3502 ft 155 kts 153°
2026-04-27 16:21 0.56037 9.36275 2116 ft 156 kts 154°
2026-04-27 16:22 0.55058 9.36751 2039 ft 156 kts 154°
2026-04-27 16:22 0.53129 9.37691 2014 ft 155 kts 154°
2026-04-27 16:22 0.52160 9.38162 2004 ft 154 kts 154°
2026-04-27 16:23 0.51217 9.38621 1780 ft 149 kts 154°
2026-04-27 16:23 0.49340 9.39534 864 ft 151 kts 155°
2026-04-27 16:23 0.48390 9.40000 417 ft 150 kts 156°
2026-04-27 16:24 0.47453 9.40464 159 ft 149 kts 154°
2026-04-27 16:24 0.46168 9.41080 37 ft 12 kts 169°
2026-04-27 16:25 0.46117 9.40986 37 ft 0 kts 243°
2026-04-27 16:32 11.54534 43.14617 55 ft 0 kts 93°